[[{"header":{"parameterUnit":"m.s-1","parameterCategory":1,"la1":30.2991,"la2":30.254,"lo1":-89.0895,"lo2":-89.0444,"dy":0.0017,"dx":0.0017,"nx":28,"ny":28,"refTime":"2024-07-07T21:00:00:Z","depth":0,"parameterNumber":2,"parameterNumberName":"U-component_of_WINDS"},"data":[0,0,0,0,0,0,0,0,0,0,0,0,0,0,0,0,0,0,0,0,0,0,0,0,0,0,0,0,0,0,0,0,0,0,0,0,0,0,0,0,0,0,0,0,0,0,0,0,0,0,0,0,0,0,0,0,0,0,-2.6314,-2.6314,0,-2.6323,-2.6324,-2.6324,-2.6292,-2.6291,-2.629,-2.6289,-2.6297,-2.6299,-2.63,0,0,0,0,0,0,0,0,0,0,0,0,0,-2.6268,-2.6269,-2.6314,-2.6314,-2.6314,-2.6323,-2.6324,-2.6324,-2.6292,-2.6291,-2.629,-2.6288,-2.6297,-2.6298,-2.63,0,0,0,0,0,0,0,0,0,0,0,0,0,-2.6284,-2.627,-2.6314,-2.63,-2.6298,-2.6323,-2.6324,-2.6324,-2.6292,-2.6291,-2.6289,-2.6288,-2.6297,-2.6298,-2.63,-2.6339,0,0,-2.6305,-2.6306,0,0,0,0,0,0,0,0,-2.6283,-2.6286,-2.6302,-2.6301,-2.6299,-2.6305,-2.631,-2.6329,-2.6292,-2.6294,-2.6289,-2.6287,-2.6301,-2.6302,-2.6307,-2.6339,-2.634,-2.6305,-2.6306,-2.6307,-2.6307,0,0,0,0,0,0,0,-2.6282,-2.6285,-2.6318,-2.6302,-2.6301,-2.6292,-2.6293,-2.6314,-2.6306,-2.6294,-2.6292,-2.6293,-2.63,-2.6306,-2.6307,-2.634,-2.6305,-2.6307,-2.6308,-2.6308,-2.6404,-2.6406,0,0,0,0,0,0,-2.6283,-2.6284,-2.6317,-2.6318,-2.6288,-2.6294,-2.6295,-2.6305,-2.6305,-2.6304,-2.6295,-2.6292,-2.6303,-2.6305,-2.6307,-2.6352,-2.6307,-2.6309,-2.6309,-2.6403,-2.6405,-2.6406,0,0,0,0,0,0,-2.6282,-2.6286,-2.6317,-2.6301,-2.6304,-2.6297,-2.6308,-2.6306,-2.6311,-2.6306,-2.6304,-2.6302,-2.6302,-2.6305,-2.6331,-2.6352,-2.6309,-2.6311,-2.6401,-2.6404,-2.6406,-2.6443,0,0,0,0,0,0,-2.6281,-2.6286,-2.6301,-2.6301,-2.6305,-2.6341,-2.6309,-2.6307,-2.6314,-2.631,-2.6312,-2.6311,-2.6301,-2.6329,-2.6333,-2.6354,-2.6312,-2.6399,-2.6402,-2.6405,-2.644,-2.6447,-2.6452,0,0,0,0,0,-2.6279,-2.6311,-2.6302,-2.6306,-2.6323,-2.6342,-2.6345,-2.6333,-2.6316,-2.633,-2.6327,-2.6311,-2.635,-2.6332,-2.6336,-2.6358,-2.6398,-2.6401,-2.6405,-2.6437,-2.6445,-2.6452,0,0,0,0,0,0,-2.6313,-2.6311,-2.63,-2.6333,-2.6338,-2.6337,-2.6355,-2.6342,-2.6352,-2.6348,-2.6334,-2.6335,-2.6363,-2.6364,-2.6344,-2.6396,-2.6371,-2.6375,-2.6394,-2.6402,-2.6407,-2.6406,-2.6314,0,0,0,0,0,-2.6324,-2.634,-2.6337,-2.6366,-2.637,-2.6362,-2.637,-2.6361,-2.6366,-2.6368,-2.6366,-2.6371,-2.6384,-2.6393,-2.6405,-2.6441,-2.644,-2.6458,-2.6464,-2.6469,-2.6472,-2.649,-2.6498,-2.6418,-2.6418,-2.6418,0,0,-2.6347,-2.6348,-2.6359,-2.6373,-2.6376,-2.6392,-2.6364,-2.6383,-2.6395,-2.637,-2.6395,-2.6394,-2.6399,-2.643,-2.6443,-2.6431,-2.6494,-2.6473,-2.6477,-2.6478,-2.6495,-2.6502,-2.6509,-2.642,-2.642,-2.6419,0,0,-2.6397,-2.64,-2.6424,-2.6428,-2.6433,-2.6428,-2.6434,-2.6435,-2.6434,-2.6459,-2.6441,-2.6455,-2.6478,-2.6482,-2.6487,-2.654,-2.6525,-2.6544,-2.6575,-2.6593,-2.6599,-2.6605,-2.6622,-2.6629,-2.6548,-2.6548,-2.6548,0,-2.6425,-2.6449,-2.6438,-2.6458,-2.6465,-2.6445,-2.6469,-2.6473,-2.6481,-2.6486,-2.6472,-2.6501,-2.6503,-2.6534,-2.6547,-2.6553,-2.6558,-2.6543,-2.6599,-2.6605,-2.661,-2.6626,-2.6633,-2.6551,-2.655,-2.655,-2.655,0,-2.6483,-2.65,-2.6519,-2.6528,-2.6537,-2.6559,-2.6551,-2.6562,-2.6553,-2.6549,-2.6575,-2.6576,-2.6588,-2.6595,-2.6586,-2.6625,-2.6617,-2.6602,-2.6576,-2.662,-2.6635,-2.6641,-2.6554,-2.6553,-2.6552,-2.6552,0,0,-2.6552,-2.6556,-2.6563,-2.6567,-2.6571,-2.6584,-2.6606,-2.6618,-2.6626,-2.6634,-2.665,-2.6671,-2.6657,-2.6663,-2.6655,-2.6671,-2.6711,-2.6653,-2.6653,-2.6662,-2.6753,-2.6763,-2.6771,-2.6702,-2.6703,-2.6704,-2.6752,0,-2.66,-2.6637,-2.6628,-2.6664,-2.6679,-2.6661,-2.6679,-2.6684,-2.6682,-2.6694,-2.6692,-2.6706,-2.6687,-2.669,-2.6706,-2.6703,-2.6729,-2.67,-2.6717,-2.6717,-2.6714,-2.6779,-2.679,-2.6835,-2.6758,-2.6759,-2.676,0,-2.6661,-2.6671,-2.6708,-2.671,-2.6716,-2.6733,-2.6743,-2.6756,-2.6761,-2.6759,-2.6766,-2.6754,-2.6775,-2.6751,-2.6779,-2.676,-2.6766,-2.6766,-2.6768,-2.6767,-2.674,-2.6779,-2.685,-2.6856,-2.677,-2.6769,-2.6768,0,-2.6706,-2.6729,-2.6754,-2.6758,-2.6762,-2.6774,-2.6776,-2.678,-2.6788,-2.6797,-2.6802,-2.6813,-2.6819,-2.6828,-2.682,-2.6804,-2.685,-2.6825,-2.6847,-2.6847,-2.6856,-2.6855,-2.6926,-2.6863,-2.6863,-2.6863,-2.6863,0,-2.676,-2.6783,-2.6774,-2.679,-2.6815,-2.6805,-2.6831,-2.6831,-2.6835,-2.6849,-2.6835,-2.6849,-2.6839,-2.6852,-2.6846,-2.687,-2.6873,-2.6871,-2.6868,-2.6871,-2.6871,-2.6874,-2.687,-2.6865,-2.6864,-2.6864,-2.6864,0,-2.6814,-2.6809,-2.6835,-2.6837,-2.6838,-2.6856,-2.6858,-2.6872,-2.6869,-2.6888,-2.6892,-2.6887,-2.6902,-2.6896,-2.6912,-2.6908,-2.6938,-2.6932,-2.6936,-2.6934,-2.6955,-2.6953,-2.703,-2.7039,-2.6971,-2.6972,-2.6973,0,-2.6847,-2.6865,-2.6869,-2.6878,-2.6881,-2.6896,-2.6904,-2.6895,-2.6904,-2.6912,-2.6925,-2.6939,-2.6949,-2.6974,-2.6972,-2.6984,-2.6977,-2.7004,-2.6979,-2.6981,-2.6976,-2.6974,-2.6975,-2.7008,-2.7009,-2.7009,-2.701,0,-2.6907,-2.6904,-2.6916,-2.6928,-2.6938,-2.6947,-2.6954,-2.6963,-2.6954,-2.6965,-2.6981,-2.6989,-2.7005,-2.7019,-2.7029,-2.7031,-2.7019,-2.7018,-2.7023,-2.7025,-2.7026,-2.7024,-2.6947,-2.7016,-2.7015,-2.7015,-2.7014,-2.7014,-2.6951,-2.6965,-2.697,-2.6985,-2.699,-2.6997,-2.701,-2.701,-2.7022,-2.7035,-2.7029,-2.7047,-2.7052,-2.7065,-2.7069,-2.7082,-2.7072,-2.708,-2.7082,-2.7083,-2.7086,-2.7025,-2.7084,-2.7084,-2.7084,-2.7084,-2.7084,0,-2.7009,-2.7011,-2.7025,-2.7036,-2.7047,-2.7036,-2.7043,-2.7053,-2.7069,-2.7075,-2.7086,-2.7103,-2.7117,-2.7116,-2.7129,-2.7139,-2.7134,-2.7143,-2.7141,-2.7141,-2.7095,-2.7088,-2.7147,-2.7147,-2.7147,-2.7147,-2.7147,-2.7147,-2.704,-2.7064,-2.7061,-2.7088,-2.709,-2.7107,-2.7112,-2.7119,-2.7124,-2.7144,-2.7155,-2.7155,-2.7159,-2.7171,-2.7183,-2.7182,-2.7187,-2.7198,-2.7195,-2.7151,-2.7145,-2.7139,-2.7132,-2.7199,-2.7199,-2.724,-2.724,-2.7241]},{"header":{"parameterUnit":"m.s-1","parameterCategory":1,"la1":30.2991,"la2":30.254,"lo1":-89.0895,"lo2":-89.0444,"dy":0.0017,"dx":0.0017,"nx":28,"ny":28,"refTime":"2024-07-07T21:00:00:Z","depth":0,"parameterNumber":3,"parameterNumberName":"V-component_of_WINDS"},"data":[0,0,0,0,0,0,0,0,0,0,0,0,0,0,0,0,0,0,0,0,0,0,0,0,0,0,0,0,0,0,0,0,0,0,0,0,0,0,0,0,0,0,0,0,0,0,0,0,0,0,0,0,0,0,0,0,0,0,5.3771,5.3771,0,5.3787,5.3787,5.3787,5.3683,5.368,5.3678,5.3675,5.3688,5.3691,5.3694,0,0,0,0,0,0,0,0,0,0,0,0,0,5.3648,5.3651,5.3771,5.3771,5.3772,5.3787,5.3787,5.3787,5.3684,5.368,5.3677,5.3673,5.3687,5.3691,5.3694,0,0,0,0,0,0,0,0,0,0,0,0,0,5.3686,5.3652,5.3771,5.3722,5.3718,5.3787,5.3787,5.3787,5.3685,5.368,5.3676,5.3672,5.3686,5.369,5.3695,5.3811,0,0,5.3709,5.3711,0,0,0,0,0,0,0,0,5.3684,5.3691,5.3729,5.3725,5.3721,5.3729,5.3748,5.3795,5.3686,5.3697,5.3675,5.367,5.3705,5.3708,5.372,5.3812,5.3813,5.3709,5.3712,5.3714,5.3716,0,0,0,0,0,0,0,5.3682,5.369,5.3777,5.373,5.3725,5.3698,5.3698,5.3757,5.3725,5.3696,5.3688,5.3692,5.3702,5.3716,5.372,5.3813,5.3709,5.3713,5.3716,5.3718,5.3999,5.4003,0,0,0,0,0,0,5.3686,5.3688,5.3777,5.3778,5.3691,5.3704,5.3704,5.3731,5.3724,5.3719,5.3695,5.3687,5.371,5.3714,5.372,5.3853,5.3714,5.3719,5.3721,5.3994,5.4,5.4005,0,0,0,0,0,0,5.3684,5.3695,5.3776,5.3731,5.3739,5.371,5.3741,5.3733,5.3747,5.3724,5.3718,5.3716,5.3707,5.3713,5.3789,5.3853,5.3721,5.3725,5.3989,5.3996,5.4002,5.4124,0,0,0,0,0,0,5.3681,5.3695,5.374,5.3733,5.3742,5.3846,5.3745,5.3737,5.3756,5.3745,5.3742,5.3737,5.3704,5.3783,5.3794,5.3857,5.3728,5.3983,5.3992,5.4,5.4114,5.4134,5.4151,0,0,0,0,0,5.3677,5.3773,5.3742,5.3754,5.3797,5.385,5.3855,5.3816,5.3762,5.3805,5.3791,5.3737,5.3845,5.3791,5.3803,5.3868,5.3978,5.3989,5.4,5.4105,5.413,5.4151,0,0,0,0,0,0,5.3786,5.3771,5.3737,5.3834,5.3844,5.3833,5.3886,5.3844,5.3869,5.3857,5.3807,5.3808,5.3891,5.3888,5.3828,5.398,5.3902,5.3915,5.3978,5.4002,5.402,5.4017,5.3732,0,0,0,0,0,5.3822,5.3867,5.3851,5.3938,5.3945,5.3916,5.3937,5.3906,5.3915,5.3918,5.3909,5.3918,5.3953,5.3978,5.401,5.4114,5.411,5.4165,5.4183,5.4199,5.421,5.4262,5.4285,5.404,5.4039,5.4039,0,0,5.3896,5.3893,5.3924,5.396,5.3964,5.4011,5.392,5.3973,5.4006,5.3926,5.3996,5.399,5.3997,5.4087,5.4126,5.4087,5.4277,5.4212,5.4225,5.4227,5.4276,5.4299,5.432,5.4047,5.4045,5.4044,0,0,5.4052,5.4057,5.4128,5.4135,5.4143,5.4123,5.4141,5.4136,5.4128,5.4199,5.4139,5.4178,5.4241,5.4248,5.426,5.4421,5.4372,5.4433,5.4529,5.4581,5.46,5.4617,5.4672,5.4692,5.4445,5.4445,5.4445,0,5.4142,5.4211,5.417,5.4227,5.4244,5.4175,5.4246,5.4254,5.4273,5.4285,5.4241,5.4318,5.4318,5.4408,5.4447,5.446,5.4477,5.4431,5.4601,5.4618,5.4633,5.4684,5.4705,5.4452,5.4451,5.4451,5.445,0,5.4319,5.4368,5.4425,5.4444,5.4468,5.4532,5.45,5.4529,5.4497,5.4481,5.4553,5.4551,5.458,5.46,5.4569,5.4685,5.466,5.461,5.453,5.4664,5.4711,5.4731,5.4462,5.446,5.4458,5.4456,0,0,5.4542,5.454,5.4561,5.4569,5.4574,5.4609,5.4671,5.47,5.4724,5.474,5.4788,5.4844,5.4797,5.4811,5.478,5.4827,5.4951,5.477,5.4769,5.4801,5.5076,5.5111,5.5135,5.492,5.4924,5.4927,5.5074,0,5.4693,5.4797,5.4762,5.4867,5.491,5.4846,5.4899,5.4907,5.4895,5.4928,5.4914,5.4953,5.4891,5.4898,5.4941,5.4927,5.5005,5.4916,5.4962,5.4964,5.4958,5.516,5.5197,5.5336,5.5093,5.5096,5.5098,0,5.4882,5.4905,5.5015,5.5011,5.5028,5.5076,5.51,5.5134,5.5142,5.5129,5.5146,5.5105,5.5163,5.5087,5.5165,5.5105,5.5122,5.5119,5.5123,5.5122,5.5037,5.5162,5.538,5.54,5.5128,5.5125,5.5123,0,5.503,5.5089,5.5161,5.5171,5.5169,5.5204,5.5205,5.5209,5.5228,5.525,5.5261,5.529,5.5304,5.5326,5.5294,5.5242,5.5376,5.5297,5.5365,5.5366,5.5393,5.5391,5.5614,5.5411,5.541,5.541,5.541,0,5.5199,5.5268,5.5228,5.5272,5.5346,5.5307,5.5381,5.5375,5.5379,5.542,5.5367,5.5407,5.5364,5.5399,5.5375,5.5442,5.5449,5.5439,5.5431,5.5442,5.5443,5.545,5.5438,5.5415,5.5414,5.5413,5.5412,0,5.5375,5.5352,5.5426,5.5419,5.5419,5.5474,5.5468,5.5508,5.5493,5.5545,5.5555,5.553,5.5569,5.554,5.5579,5.5562,5.565,5.563,5.5647,5.564,5.5708,5.5701,5.594,5.5968,5.5751,5.5753,5.5755,0,5.5483,5.5535,5.5534,5.5558,5.5562,5.5602,5.5622,5.5586,5.5608,5.5621,5.5659,5.5694,5.5719,5.5784,5.5768,5.5797,5.5776,5.5858,5.5779,5.5788,5.5773,5.5769,5.5773,5.5872,5.5875,5.5877,5.5879,0,5.5677,5.5662,5.5694,5.5722,5.5747,5.5767,5.5783,5.5805,5.5768,5.5797,5.5836,5.5856,5.5895,5.5929,5.5953,5.5952,5.5909,5.5904,5.592,5.593,5.5936,5.5931,5.5686,5.5898,5.5896,5.5894,5.5893,5.5892,5.5819,5.5861,5.5867,5.5904,5.5912,5.5928,5.5964,5.5954,5.5987,5.6016,5.5993,5.6039,5.6045,5.6072,5.6078,5.6113,5.6078,5.6103,5.6109,5.6115,5.6123,5.5935,5.6117,5.6117,5.6116,5.6116,5.6115,0,5.6007,5.6008,5.6042,5.6066,5.6094,5.6054,5.6069,5.6095,5.6136,5.6146,5.6173,5.6217,5.625,5.6239,5.6268,5.6298,5.6278,5.6306,5.6302,5.6302,5.6153,5.6134,5.6321,5.6321,5.6321,5.6321,5.6321,5.6321,5.6107,5.6175,5.6162,5.6233,5.6234,5.6279,5.6291,5.6305,5.6312,5.6365,5.6392,5.6385,5.6386,5.6414,5.6442,5.6438,5.645,5.6484,5.6473,5.6333,5.6313,5.6293,5.6275,5.6488,5.6488,5.6617,5.6619,5.662]}]]